#timestamp,LO_Frequency,Hit,StdDev 
1683151215.8,286046998.7,N
1683151235.6,286046999.4,N
1683151255.5,286046999.0,N
1683151275.3,286046997.3,N
1683151295.1,286046999.9,N
1683151315.9,286046999.9,N
1683151335.7,286047000.4,N
1683151355.6,286046999.9,N
1683151375.4,286046999.7,N
1683151395.2,286046998.9,N
1683151415.1,286047000.5,N
1683151416.0,286047000.5,N
1683151435.8,286047001.6,N
1683151455.6,286047002.7,N
1683151475.5,286047001.3,N
1683151495.3,286047003.5,N
1683151515.2,286047003.2,N
1683151535.9,286047002.1,N
1683151555.7,286047002.1,N
1683151575.6,286047004.2,N
1683151595.4,286047004.2,N
1683151615.2,286047001.7,N
1683151635.1,286047001.4,N
1683151636.0,286047001.4,N
1683151655.8,286047001.5,N
1683151675.7,286047000.1,N
1683151695.5,286046999.8,N
1683151715.3,286047004.4,N
1683151735.2,286047001.9,N
1683151755.0,286047002.3,N
1683151755.9,286047002.3,N
1683151775.7,286047002.1,N
1683151795.6,286047003.8,N
1683151815.4,286047004.4,N
1683151835.3,286047001.8,N
1683151855.1,286047002.1,N
1683151856.0,286047002.1,N
1683151875.8,286047002.1,N
1683151895.7,286047003.9,N
1683151915.5,286047002.4,N
1683151935.4,286047004.0,Y
1683151955.2,286046997.1,P
1683151975.0,286046997.3,N
1683151975.9,286046997.3,N
1683151995.8,286046996.5,N
1683152015.6,286046999.4,N
1683152035.4,286046999.6,N
1683152055.3,286046997.2,N
1683152075.1,286046996.9,N
1683152095.9,286046999.2,N
1683152115.7,286046999.3,N
1683152135.5,286046999.3,N
1683152155.4,286047001.2,N
1683152175.2,286046998.2,N
1683152195.0,286046998.9,N
1683152195.9,286046998.9,N
1683152215.8,286046999.0,N
1683152235.6,286046998.3,N
1683152255.5,286046998.1,N
1683152275.3,286046999.3,N
1683152295.1,286046998.3,N
1683152315.9,286047000.6,N
1683152335.7,286046997.7,N
1683152355.5,286046999.3,N
1683152375.4,286046998.4,N
1683152395.2,286047000.6,N
1683152415.1,286047000.6,N
1683152416.0,286047000.6,N
1683152435.8,286046998.5,N
1683152455.6,286046999.0,N
1683152475.5,286046998.4,N
1683152495.3,286046998.3,N
1683152515.1,286046998.3,N
1683152535.9,286046999.3,N
1683152555.2,286046999.1,N
1683152575.1,286046998.7,N
1683152576.0,286046998.7,N
1683152595.8,286046997.8,N
1683152615.6,286046997.2,N
1683152635.5,286046998.0,N
1683152655.3,286046999.0,N
1683152675.1,286047001.1,N
1683152695.9,286046998.5,N
1683152715.7,286047001.0,N
1683152735.6,286046998.3,N
1683152755.4,286046996.5,Y
1683152775.2,286047002.4,P
1683152795.1,286047002.0,N
1683152796.0,286047002.0,N
1683152815.8,286047002.0,N
1683152835.6,286046999.7,N
1683152855.5,286046999.7,N
1683152875.3,286046999.7,N
1683152895.2,286047002.7,N
1683152915.9,286047003.8,N
1683152935.7,286047002.4,N
1683152955.6,286047002.6,N
1683152975.4,286047002.3,N
1683152995.2,286047003.2,N
1683153015.1,286047003.1,N
1683153016.0,286047003.1,N
1683153035.8,286047004.3,N
1683153055.7,286047004.4,N
1683153075.5,286047001.9,N
1683153095.3,286047000.8,N
1683153115.2,286046998.1,N
1683153135.0,286046998.7,N
1683153135.9,286046998.7,N
1683153155.7,286047000.6,N
1683153175.6,286046996.5,N
1683153195.4,286046999.3,N
1683153215.3,286046996.5,N
1683153235.1,286046999.4,N
1683153236.0,286046999.4,N
1683153255.8,286046998.4,N
1683153275.7,286047000.6,N
1683153295.5,286047003.6,N
1683153315.3,286047002.7,N
1683153335.2,286047002.2,N
1683153355.0,286046998.2,N
1683153355.9,286046998.2,N
1683153375.8,286047000.8,N
1683153395.6,286047000.6,N
1683153415.4,286047000.8,N
1683153435.3,286046998.3,N
1683153455.1,286046998.5,N
1683153475.8,286047001.2,N
1683153495.7,286046999.8,N
1683153515.5,286047001.0,N
1683153535.4,286046999.9,N
1683153555.2,286046999.8,N
1683153575.0,286047002.2,N
1683153575.9,286047002.2,N
1683153595.8,286047004.0,N
1683153615.6,286047002.0,N
1683153635.5,286047003.7,N
1683153655.3,286047003.2,N
1683153675.1,286047003.9,N
1683153695.9,286047002.5,N
1683153715.7,286047002.1,N
1683153735.5,286047002.1,N
1683153755.4,286047001.8,N
1683153775.2,286047004.2,N
1683153795.1,286047002.1,N
1683153796.0,286047002.1,N
1683153815.8,286047002.1,N
1683153835.6,286047002.5,N
1683153855.5,286047002.6,N
1683153875.3,286047002.4,N
1683153895.2,286047002.3,N
1683153915.9,286047001.5,N
1683153935.7,286047001.6,N
1683153955.6,286047002.1,N
1683153975.4,286047002.8,N
1683153995.2,286047002.1,N
1683154015.1,286047001.5,N
1683154016.0,286047001.5,N
1683154035.8,286047004.0,Y
1683154055.7,286047002.3,P
1683154075.5,286047001.6,P
1683154095.3,286047002.6,P
1683154115.2,286047002.8,Y
1683154135.0,286046999.0,P
1683154135.9,286046999.0,N
1683154155.8,286046997.1,N
1683154175.6,286046996.8,N
1683154195.4,286046996.6,N
1683154215.3,286046999.4,N
1683154235.1,286046999.2,N
1683154255.8,286046997.3,N
1683154275.7,286046997.2,N
1683154295.5,286046998.0,N
1683154315.4,286046995.1,Y
1683154335.2,286046997.0,P
1683154355.0,286046997.2,P
1683154355.9,286046997.2,P
1683154375.8,286046997.6,Y
1683154395.6,286046998.7,P
1683154415.4,286046999.0,N
1683154435.3,286046998.3,N
1683154455.1,286046996.9,Y
1683154475.9,286047001.2,P
1683154495.7,286046999.1,N
1683154515.5,286046999.5,N
1683154535.4,286046996.5,Y
1683154555.2,286047000.7,P
1683154575.0,286046998.5,N
1683154576.0,286046998.5,N
1683154595.8,286046999.6,N
1683154615.6,286046999.6,N
1683154635.5,286046997.1,Y
1683154655.3,286046996.6,P
1683154675.1,286046999.2,N
1683154695.9,286046997.1,N
1683154715.7,286046997.5,N
1683154735.6,286046997.7,N
1683154755.4,286046997.9,N
1683154775.2,286046996.2,Y
1683154795.1,286046996.7,P
1683154796.0,286046996.7,P
